Time,TemperatureF,DewpointF,PressureIn,WindDirection,WindDirectionDegrees,WindSpeedMPH,WindSpeedGustMPH,Humidity,HourlyPrecipIn,Conditions,Clouds,dailyrainin,SolarRadiationWatts/m^2,SoftwareType,DateUTC
2013-05-31 00:01:00,73.0,66.1,30.15,SW,233,0.0,1.0,79,0.00,,,0.00,0,Wunderground v.1.15,2013-05-31 04:01:00,
2013-05-31 00:02:00,72.9,66.4,30.15,SW,233,0.0,1.0,80,0.00,,,0.00,0,Wunderground v.1.15,2013-05-31 04:02:00,
2013-05-31 00:03:00,72.8,66.3,30.15,SW,233,0.0,1.0,80,0.00,,,0.00,0,Wunderground v.1.15,2013-05-31 04:03:00,
2013-05-31 00:04:00,72.7,66.2,30.16,SW,233,0.0,1.0,80,0.00,,,0.00,0,Wunderground v.1.15,2013-05-31 04:04:00,
2013-05-31 00:10:00,72.4,65.9,30.15,SW,233,0.0,1.0,80,0.00,,,0.00,0,Wunderground v.1.15,2013-05-31 04:10:00,
2013-05-31 00:14:00,72.2,66.0,30.15,SW,233,0.0,1.0,81,0.00,,,0.00,0,Wunderground v.1.15,2013-05-31 04:14:00,
2013-05-31 00:20:00,72.0,65.8,30.16,SW,228,0.0,1.0,81,0.00,,,0.00,0,Wunderground v.1.15,2013-05-31 04:20:00,
2013-05-31 00:26:00,71.7,65.9,30.16,SW,218,1.0,2.0,82,0.00,,,0.00,0,Wunderground v.1.15,2013-05-31 04:26:00,
2013-05-31 00:31:00,71.6,65.8,30.16,SW,218,1.0,1.0,82,0.00,,,0.00,0,Wunderground v.1.15,2013-05-31 04:31:00,
2013-05-31 00:37:00,71.4,66.0,30.16,SW,234,0.0,1.0,83,0.00,,,0.00,0,Wunderground v.1.15,2013-05-31 04:37:00,
2013-05-31 00:42:00,71.3,65.9,30.16,SW,234,0.0,1.0,83,0.00,,,0.00,0,Wunderground v.1.15,2013-05-31 04:42:00,
2013-05-31 00:48:00,71.2,65.8,30.16,SW,234,0.0,1.0,83,0.00,,,0.00,0,Wunderground v.1.15,2013-05-31 04:48:00,
2013-05-31 00:54:00,70.9,65.8,30.16,SW,234,1.0,1.0,84,0.00,,,0.00,0,Wunderground v.1.15,2013-05-31 04:54:00,
2013-05-31 01:00:00,70.6,65.5,30.16,SW,234,0.0,1.0,84,0.00,,,0.00,0,Wunderground v.1.15,2013-05-31 05:00:00,
2013-05-31 01:05:00,70.4,65.7,30.16,SW,234,1.0,1.0,85,0.00,,,0.00,0,Wunderground v.1.15,2013-05-31 05:05:00,
2013-05-31 01:11:00,70.1,65.4,30.16,SW,234,1.0,1.0,85,0.00,,,0.00,0,Wunderground v.1.15,2013-05-31 05:11:00,
2013-05-31 01:17:00,70.0,65.3,30.16,SW,234,0.0,1.0,85,0.00,,,0.00,0,Wunderground v.1.15,2013-05-31 05:17:00,
2013-05-31 01:23:00,69.9,65.5,30.15,SW,234,0.0,1.0,86,0.00,,,0.00,0,Wunderground v.1.15,2013-05-31 05:23:00,
2013-05-31 01:28:00,69.9,65.5,30.16,SW,234,0.0,1.0,86,0.00,,,0.00,0,Wunderground v.1.15,2013-05-31 05:28:00,
2013-05-31 01:33:00,69.8,65.4,30.16,SW,234,0.0,1.0,86,0.00,,,0.00,0,Wunderground v.1.15,2013-05-31 05:33:00,
2013-05-31 01:39:00,69.6,65.6,30.16,SW,234,0.0,1.0,87,0.00,,,0.00,0,Wunderground v.1.15,2013-05-31 05:39:00,
2013-05-31 01:45:00,69.5,65.5,30.15,SSW,211,0.0,1.0,87,0.00,,,0.00,0,Wunderground v.1.15,2013-05-31 05:45:00,
2013-05-31 01:51:00,69.3,65.6,30.15,SSW,194,1.0,2.0,88,0.00,,,0.00,0,Wunderground v.1.15,2013-05-31 05:51:00,
2013-05-31 01:57:00,68.9,65.2,30.15,SSW,194,1.0,2.0,88,0.00,,,0.00,0,Wunderground v.1.15,2013-05-31 05:57:00,
2013-05-31 02:03:00,68.8,65.4,30.15,SSW,194,0.0,1.0,89,0.00,,,0.00,0,Wunderground v.1.15,2013-05-31 06:03:00,
2013-05-31 02:09:00,68.8,65.4,30.15,SSW,194,0.0,1.0,89,0.00,,,0.00,0,Wunderground v.1.15,2013-05-31 06:09:00,
2013-05-31 02:15:00,68.7,65.3,30.16,SSW,194,0.0,1.0,89,0.00,,,0.00,0,Wunderground v.1.15,2013-05-31 06:15:00,
2013-05-31 02:21:00,68.5,65.1,30.16,SSW,194,0.0,1.0,89,0.00,,,0.00,0,Wunderground v.1.15,2013-05-31 06:21:00,
2013-05-31 02:27:00,68.4,65.4,30.16,SSW,194,0.0,1.0,90,0.00,,,0.00,0,Wunderground v.1.15,2013-05-31 06:27:00,
2013-05-31 02:33:00,68.2,65.2,30.16,SSW,194,0.0,1.0,90,0.00,,,0.00,0,Wunderground v.1.15,2013-05-31 06:33:00,
2013-05-31 02:38:00,68.1,65.1,30.16,SSW,194,0.0,1.0,90,0.00,,,0.00,0,Wunderground v.1.15,2013-05-31 06:38:00,
2013-05-31 02:44:00,68.0,65.0,30.16,SSW,194,0.0,1.0,90,0.00,,,0.00,0,Wunderground v.1.15,2013-05-31 06:44:00,
2013-05-31 02:50:00,67.9,65.2,30.16,SSW,194,0.0,1.0,91,0.00,,,0.00,0,Wunderground v.1.15,2013-05-31 06:50:00,
2013-05-31 02:56:00,67.8,65.1,30.16,SSW,194,1.0,2.0,91,0.00,,,0.00,0,Wunderground v.1.15,2013-05-31 06:56:00,
2013-05-31 03:01:00,67.7,65.0,30.15,SSW,194,1.0,1.0,91,0.00,,,0.00,0,Wunderground v.1.15,2013-05-31 07:01:00,
2013-05-31 03:07:00,67.7,65.0,30.15,SSW,194,0.0,1.0,91,0.00,,,0.00,0,Wunderground v.1.15,2013-05-31 07:07:00,
2013-05-31 03:12:00,67.6,64.9,30.15,SSW,194,0.0,0.0,91,0.00,,,0.00,0,Wunderground v.1.15,2013-05-31 07:12:00,
2013-05-31 03:18:00,67.5,64.8,30.15,SSW,194,0.0,1.0,91,0.00,,,0.00,0,Wunderground v.1.15,2013-05-31 07:18:00,
2013-05-31 03:24:00,67.4,65.0,30.15,SSW,194,0.0,2.0,92,0.00,,,0.00,0,Wunderground v.1.15,2013-05-31 07:24:00,
2013-05-31 03:30:00,67.2,64.8,30.15,SSW,194,1.0,1.0,92,0.00,,,0.00,0,Wunderground v.1.15,2013-05-31 07:30:00,
2013-05-31 03:36:00,67.1,65.0,30.15,SSW,194,0.0,1.0,93,0.00,,,0.00,0,Wunderground v.1.15,2013-05-31 07:36:00,
2013-05-31 03:42:00,67.1,65.0,30.15,SSW,194,0.0,3.0,93,0.00,,,0.00,0,Wunderground v.1.15,2013-05-31 07:42:00,
2013-05-31 03:48:00,67.3,65.2,30.15,SSW,204,1.0,3.0,93,0.00,,,0.00,0,Wunderground v.1.15,2013-05-31 07:48:00,
2013-05-31 03:53:00,67.4,65.0,30.15,SW,218,2.0,2.0,92,0.00,,,0.00,0,Wunderground v.1.15,2013-05-31 07:53:00,
2013-05-31 03:58:00,67.4,65.0,30.15,SSW,210,2.0,3.0,92,0.00,,,0.00,0,Wunderground v.1.15,2013-05-31 07:58:00,
2013-05-31 04:04:00,67.3,64.9,30.15,SSW,210,1.0,2.0,92,0.00,,,0.00,0,Wunderground v.1.15,2013-05-31 08:04:00,
2013-05-31 04:10:00,67.2,64.8,30.15,SSW,210,1.0,1.0,92,0.00,,,0.00,0,Wunderground v.1.15,2013-05-31 08:10:00,
2013-05-31 04:15:00,67.0,64.6,30.15,SSW,210,1.0,1.0,92,0.00,,,0.00,0,Wunderground v.1.15,2013-05-31 08:15:00,
2013-05-31 04:21:00,66.9,64.5,30.15,SSW,210,0.0,1.0,92,0.00,,,0.00,0,Wunderground v.1.15,2013-05-31 08:21:00,
2013-05-31 04:27:00,66.6,64.2,30.16,SSW,210,0.0,1.0,92,0.00,,,0.00,0,Wunderground v.1.15,2013-05-31 08:27:00,
2013-05-31 04:32:00,66.4,64.3,30.16,SSW,210,0.0,1.0,93,0.00,,,0.00,0,Wunderground v.1.15,2013-05-31 08:32:00,
2013-05-31 04:38:00,66.2,64.1,30.15,SSW,210,0.0,1.0,93,0.00,,,0.00,0,Wunderground v.1.15,2013-05-31 08:38:00,
2013-05-31 04:43:00,66.0,63.9,30.15,SSW,210,0.0,1.0,93,0.00,,,0.00,0,Wunderground v.1.15,2013-05-31 08:43:00,
2013-05-31 04:49:00,65.9,63.8,30.15,SSW,210,0.0,2.0,93,0.00,,,0.00,0,Wunderground v.1.15,2013-05-31 08:49:00,
2013-05-31 04:55:00,66.1,64.0,30.15,SSW,197,1.0,2.0,93,0.00,,,0.00,0,Wunderground v.1.15,2013-05-31 08:55:00,
2013-05-31 05:00:00,66.1,64.3,30.15,SSW,197,1.0,1.0,94,0.00,,,0.00,0,Wunderground v.1.15,2013-05-31 09:00:00,
2013-05-31 05:06:00,66.1,64.3,30.16,SSW,197,1.0,1.0,94,0.00,,,0.00,0,Wunderground v.1.15,2013-05-31 09:06:00,
2013-05-31 05:11:00,66.1,64.0,30.16,SSW,197,1.0,1.0,93,0.00,,,0.00,0,Wunderground v.1.15,2013-05-31 09:11:00,
2013-05-31 05:17:00,66.0,63.9,30.16,SSW,197,0.0,1.0,93,0.00,,,0.00,0,Wunderground v.1.15,2013-05-31 09:17:00,
2013-05-31 05:23:00,65.9,63.8,30.16,SSW,197,1.0,2.0,93,0.00,,,0.00,0,Wunderground v.1.15,2013-05-31 09:23:00,
2013-05-31 05:28:00,65.7,63.6,30.16,SSW,197,1.0,2.0,93,0.00,,,0.00,0,Wunderground v.1.15,2013-05-31 09:28:00,
2013-05-31 05:34:00,65.5,63.4,30.16,SSW,197,1.0,1.0,93,0.00,,,0.00,0,Wunderground v.1.15,2013-05-31 09:34:00,
2013-05-31 05:39:00,65.4,63.6,30.16,SSW,197,1.0,1.0,94,0.00,,,0.00,7,Wunderground v.1.15,2013-05-31 09:39:00,
2013-05-31 05:45:00,65.3,63.5,30.16,SSW,197,1.0,1.0,94,0.00,,,0.00,11,Wunderground v.1.15,2013-05-31 09:45:00,
2013-05-31 05:51:00,65.2,63.4,30.16,SSW,197,0.0,1.0,94,0.00,,,0.00,14,Wunderground v.1.15,2013-05-31 09:51:00,
2013-05-31 05:57:00,65.2,63.4,30.17,SSW,197,0.0,1.0,94,0.00,,,0.00,21,Wunderground v.1.15,2013-05-31 09:57:00,
2013-05-31 06:03:00,65.1,63.3,30.17,SSW,197,1.0,2.0,94,0.00,,,0.00,26,Wunderground v.1.15,2013-05-31 10:03:00,
2013-05-31 06:09:00,65.2,63.4,30.17,SSW,197,1.0,2.0,94,0.00,,,0.00,30,Wunderground v.1.15,2013-05-31 10:09:00,
2013-05-31 06:15:00,65.4,63.6,30.17,SSW,197,1.0,2.0,94,0.00,,,0.00,35,Wunderground v.1.15,2013-05-31 10:15:00,
2013-05-31 06:21:00,65.4,63.6,30.17,SSW,197,1.0,1.0,94,0.00,,,0.00,42,Wunderground v.1.15,2013-05-31 10:21:00,
2013-05-31 06:27:00,65.5,63.7,30.17,SSW,197,1.0,1.0,94,0.00,,,0.00,47,Wunderground v.1.15,2013-05-31 10:27:00,
2013-05-31 06:32:00,65.6,63.8,30.17,SSW,197,0.0,1.0,94,0.00,,,0.00,53,Wunderground v.1.15,2013-05-31 10:32:00,
2013-05-31 06:38:00,65.7,63.6,30.17,SSW,197,1.0,2.0,93,0.00,,,0.00,62,Wunderground v.1.15,2013-05-31 10:38:00,
2013-05-31 06:44:00,65.7,63.6,30.17,SSW,209,1.0,2.0,93,0.00,,,0.00,69,Wunderground v.1.15,2013-05-31 10:44:00,
2013-05-31 06:49:00,65.8,63.7,30.17,West,274,1.0,2.0,93,0.00,,,0.00,77,Wunderground v.1.15,2013-05-31 10:49:00,
2013-05-31 06:55:00,66.0,63.9,30.17,SW,220,1.0,3.0,93,0.00,,,0.00,77,Wunderground v.1.15,2013-05-31 10:55:00,
2013-05-31 07:00:00,66.2,63.8,30.17,SW,221,2.0,2.0,92,0.00,,,0.00,84,Wunderground v.1.15,2013-05-31 11:00:00,
2013-05-31 07:07:00,66.4,64.0,30.17,SSW,208,2.0,6.0,92,0.00,,,0.00,95,Wunderground v.1.15,2013-05-31 11:07:00,
2013-05-31 07:13:00,66.5,64.1,30.17,SSW,206,2.0,2.0,92,0.00,,,0.00,102,Wunderground v.1.15,2013-05-31 11:13:00,
2013-05-31 07:18:00,66.6,64.2,30.17,WSW,245,1.0,2.0,92,0.00,,,0.00,111,Wunderground v.1.15,2013-05-31 11:18:00,
2013-05-31 07:24:00,66.8,64.1,30.17,WSW,239,1.0,2.0,91,0.00,,,0.00,120,Wunderground v.1.15,2013-05-31 11:24:00,
2013-05-31 07:30:00,67.1,64.4,30.17,WSW,239,0.0,2.0,91,0.00,,,0.00,125,Wunderground v.1.15,2013-05-31 11:30:00,
2013-05-31 07:36:00,67.4,64.7,30.17,SW,236,0.0,2.0,91,0.00,,,0.00,128,Wunderground v.1.15,2013-05-31 11:36:00,
2013-05-31 07:43:00,67.6,64.9,30.17,SW,236,0.0,2.0,91,0.00,,,0.00,125,Wunderground v.1.15,2013-05-31 11:43:00,
2013-05-31 07:48:00,67.8,64.8,30.18,WNW,293,0.0,2.0,90,0.00,,,0.00,130,Wunderground v.1.15,2013-05-31 11:48:00,
2013-05-31 07:54:00,68.0,64.6,30.17,WNW,293,0.0,2.0,89,0.00,,,0.00,141,Wunderground v.1.15,2013-05-31 11:54:00,
2013-05-31 08:00:00,68.1,64.7,30.17,WSW,248,1.0,1.0,89,0.00,,,0.00,153,Wunderground v.1.15,2013-05-31 12:00:00,
2013-05-31 08:06:00,68.1,64.7,30.17,WSW,248,1.0,1.0,89,0.00,,,0.00,160,Wunderground v.1.15,2013-05-31 12:06:00,
2013-05-31 08:11:00,68.3,64.9,30.17,WSW,248,1.0,1.0,89,0.00,,,0.00,178,Wunderground v.1.15,2013-05-31 12:11:00,
2013-05-31 08:17:00,68.4,65.0,30.17,South,169,1.0,2.0,89,0.00,,,0.00,195,Wunderground v.1.15,2013-05-31 12:17:00,
2013-05-31 08:23:00,68.5,65.1,30.17,South,169,1.0,1.0,89,0.00,,,0.00,255,Wunderground v.1.15,2013-05-31 12:23:00,
2013-05-31 08:28:00,68.8,65.4,30.17,South,169,1.0,2.0,89,0.00,,,0.00,341,Wunderground v.1.15,2013-05-31 12:28:00,
2013-05-31 08:34:00,69.3,65.6,30.18,SSW,211,0.0,2.0,88,0.00,,,0.00,250,Wunderground v.1.15,2013-05-31 12:34:00,
2013-05-31 08:40:00,69.9,65.5,30.17,SSW,192,1.0,1.0,86,0.00,,,0.00,369,Wunderground v.1.15,2013-05-31 12:40:00,
2013-05-31 08:46:00,70.4,65.7,30.17,South,183,1.0,2.0,85,0.00,,,0.00,299,Wunderground v.1.15,2013-05-31 12:46:00,
2013-05-31 08:52:00,71.1,66.4,30.17,SSE,168,1.0,2.0,85,0.00,,,0.00,336,Wunderground v.1.15,2013-05-31 12:52:00,
2013-05-31 08:58:00,71.3,66.2,30.17,SE,146,2.0,3.0,84,0.00,,,0.00,357,Wunderground v.1.15,2013-05-31 12:58:00,
2013-05-31 09:04:00,71.7,66.6,30.17,South,174,2.0,2.0,84,0.00,,,0.00,475,Wunderground v.1.15,2013-05-31 13:04:00,
2013-05-31 09:10:00,72.2,66.4,30.17,SSW,198,2.0,2.0,82,0.00,,,0.00,515,Wunderground v.1.15,2013-05-31 13:10:00,
2013-05-31 09:15:00,72.7,66.5,30.17,SSE,159,2.0,3.0,81,0.00,,,0.00,445,Wunderground v.1.15,2013-05-31 13:15:00,
2013-05-31 09:21:00,73.2,66.3,30.17,South,180,1.0,2.0,79,0.00,,,0.00,434,Wunderground v.1.15,2013-05-31 13:21:00,
2013-05-31 09:26:00,73.3,66.4,30.17,South,176,2.0,2.0,79,0.00,,,0.00,295,Wunderground v.1.15,2013-05-31 13:26:00,
2013-05-31 09:32:00,73.4,66.9,30.16,South,176,2.0,2.0,80,0.00,,,0.00,596,Wunderground v.1.15,2013-05-31 13:32:00,
2013-05-31 09:37:00,74.0,67.4,30.16,SE,144,1.0,2.0,80,0.00,,,0.00,401,Wunderground v.1.15,2013-05-31 13:37:00,
2013-05-31 09:43:00,74.9,67.2,30.16,SE,144,1.0,2.0,77,0.00,,,0.00,315,Wunderground v.1.15,2013-05-31 13:43:00,
2013-05-31 09:49:00,75.5,67.8,30.16,SSE,158,1.0,2.0,77,0.00,,,0.00,267,Wunderground v.1.15,2013-05-31 13:49:00,
2013-05-31 09:55:00,75.6,67.5,30.16,SE,130,1.0,2.0,76,0.00,,,0.00,338,Wunderground v.1.15,2013-05-31 13:55:00,
2013-05-31 10:00:00,75.9,67.4,30.16,SE,132,1.0,2.0,75,0.00,,,0.00,573,Wunderground v.1.15,2013-05-31 14:00:00,
2013-05-31 10:06:00,76.3,68.2,30.15,South,171,1.0,2.0,76,0.00,,,0.00,617,Wunderground v.1.15,2013-05-31 14:06:00,
2013-05-31 10:12:00,76.9,68.8,30.15,South,188,1.0,2.0,76,0.00,,,0.00,717,Wunderground v.1.15,2013-05-31 14:12:00,
2013-05-31 10:18:00,77.6,69.0,30.15,SSE,161,2.0,2.0,75,0.00,,,0.00,689,Wunderground v.1.15,2013-05-31 14:18:00,
2013-05-31 10:24:00,78.0,68.6,30.15,SE,131,2.0,4.0,73,0.00,,,0.00,443,Wunderground v.1.15,2013-05-31 14:24:00,
2013-05-31 10:30:00,78.2,68.4,30.15,ESE,107,3.0,3.0,72,0.00,,,0.00,561,Wunderground v.1.15,2013-05-31 14:30:00,
2013-05-31 10:36:00,78.7,68.9,30.14,SE,132,3.0,4.0,72,0.00,,,0.00,668,Wunderground v.1.15,2013-05-31 14:36:00,
2013-05-31 10:42:00,79.2,69.0,30.14,SSE,151,2.0,3.0,71,0.00,,,0.00,573,Wunderground v.1.15,2013-05-31 14:42:00,
2013-05-31 10:48:00,79.7,69.9,30.14,WNW,289,2.0,3.0,72,0.00,,,0.00,501,Wunderground v.1.15,2013-05-31 14:48:00,
2013-05-31 10:54:00,80.1,69.0,30.14,SE,128,2.0,5.0,69,0.00,,,0.00,643,Wunderground v.1.15,2013-05-31 14:54:00,
2013-05-31 10:59:00,80.3,68.8,30.14,SE,140,2.0,5.0,68,0.00,,,0.00,745,Wunderground v.1.15,2013-05-31 14:59:00,
2013-05-31 11:04:00,80.7,69.2,30.14,ESE,123,3.0,5.0,68,0.00,,,0.00,791,Wunderground v.1.15,2013-05-31 15:04:00,
2013-05-31 11:10:00,81.2,68.8,30.14,SE,140,2.0,5.0,66,0.00,,,0.00,772,Wunderground v.1.15,2013-05-31 15:10:00,
2013-05-31 11:16:00,82.0,70.0,30.14,North,355,2.0,5.0,67,0.00,,,0.00,796,Wunderground v.1.15,2013-05-31 15:16:00,
2013-05-31 11:22:00,82.5,69.1,30.14,WNW,292,3.0,5.0,64,0.00,,,0.00,816,Wunderground v.1.15,2013-05-31 15:22:00,
2013-05-31 11:27:00,82.7,69.7,30.14,WNW,301,3.0,5.0,65,0.00,,,0.00,740,Wunderground v.1.15,2013-05-31 15:27:00,
2013-05-31 11:33:00,82.9,68.5,30.14,North,9,2.0,5.0,62,0.00,,,0.00,800,Wunderground v.1.15,2013-05-31 15:33:00,
2013-05-31 11:38:00,83.3,70.8,30.13,North,355,2.0,5.0,66,0.00,,,0.00,809,Wunderground v.1.15,2013-05-31 15:38:00,
2013-05-31 11:44:00,83.8,70.3,30.13,NW,311,2.0,6.0,64,0.00,,,0.00,877,Wunderground v.1.15,2013-05-31 15:44:00,
2013-05-31 11:49:00,84.2,69.3,30.13,NNW,335,2.0,6.0,61,0.00,,,0.00,926,Wunderground v.1.15,2013-05-31 15:49:00,
2013-05-31 11:55:00,84.4,68.0,30.12,SE,144,2.0,5.0,58,0.00,,,0.00,954,Wunderground v.1.15,2013-05-31 15:55:00,
2013-05-31 12:00:00,84.4,67.5,30.12,ENE,61,3.0,3.0,57,0.00,,,0.00,949,Wunderground v.1.15,2013-05-31 16:00:00,
2013-05-31 12:06:00,84.7,67.3,30.12,South,171,3.0,4.0,56,0.00,,,0.00,926,Wunderground v.1.15,2013-05-31 16:06:00,
2013-05-31 12:12:00,85.1,67.6,30.11,SSE,164,3.0,4.0,56,0.00,,,0.00,775,Wunderground v.1.15,2013-05-31 16:12:00,
2013-05-31 12:18:00,85.3,66.8,30.12,SE,137,3.0,4.0,54,0.00,,,0.00,780,Wunderground v.1.15,2013-05-31 16:18:00,
2013-05-31 12:24:00,85.9,67.9,30.11,SE,131,3.0,6.0,55,0.00,,,0.00,984,Wunderground v.1.15,2013-05-31 16:24:00,
2013-05-31 12:31:00,86.7,67.5,30.11,SE,134,3.0,4.0,53,0.00,,,0.00,819,Wunderground v.1.15,2013-05-31 16:31:00,
2013-05-31 12:37:00,86.8,66.5,30.11,ENE,63,3.0,7.0,51,0.00,,,0.00,896,Wunderground v.1.15,2013-05-31 16:37:00,
2013-05-31 12:43:00,86.8,67.6,30.10,SE,145,3.0,6.0,53,0.00,,,0.00,946,Wunderground v.1.15,2013-05-31 16:43:00,
2013-05-31 12:50:00,87.5,67.7,30.10,East,83,3.0,3.0,52,0.00,,,0.00,954,Wunderground v.1.15,2013-05-31 16:50:00,
2013-05-31 12:55:00,87.2,66.3,30.10,NW,305,4.0,8.0,50,0.00,,,0.00,956,Wunderground v.1.15,2013-05-31 16:55:00,
2013-05-31 13:00:00,87.2,65.7,30.10,SE,124,6.0,6.0,49,0.00,,,0.00,612,Wunderground v.1.15,2013-05-31 17:00:00,
2013-05-31 13:06:00,87.0,66.1,30.10,SSE,148,4.0,6.0,50,0.00,,,0.00,322,Wunderground v.1.15,2013-05-31 17:06:00,
2013-05-31 13:12:00,87.7,65.0,30.10,ESE,121,3.0,7.0,47,0.00,,,0.00,926,Wunderground v.1.15,2013-05-31 17:12:00,
2013-05-31 13:18:00,88.2,65.4,30.10,NNE,26,3.0,7.0,47,0.00,,,0.00,856,Wunderground v.1.15,2013-05-31 17:18:00,
2013-05-31 13:24:00,88.7,66.5,30.09,SW,229,4.0,6.0,48,0.00,,,0.00,939,Wunderground v.1.15,2013-05-31 17:24:00,
2013-05-31 13:30:00,89.4,65.3,30.10,SE,146,3.0,8.0,45,0.00,,,0.00,932,Wunderground v.1.15,2013-05-31 17:30:00,
2013-05-31 13:35:00,89.7,66.8,30.09,NNW,328,4.0,8.0,47,0.00,,,0.00,935,Wunderground v.1.15,2013-05-31 17:35:00,
2013-05-31 13:41:00,89.9,66.3,30.09,WNW,283,3.0,6.0,46,0.00,,,0.00,886,Wunderground v.1.15,2013-05-31 17:41:00,
2013-05-31 13:46:00,90.1,66.5,30.08,ESE,107,3.0,6.0,46,0.00,,,0.00,921,Wunderground v.1.15,2013-05-31 17:46:00,
2013-05-31 13:52:00,90.5,64.9,30.08,WSW,241,3.0,6.0,43,0.00,,,0.00,928,Wunderground v.1.15,2013-05-31 17:52:00,
2013-05-31 13:58:00,90.5,64.9,30.08,SW,215,3.0,6.0,43,0.00,,,0.00,789,Wunderground v.1.15,2013-05-31 17:58:00,
2013-05-31 14:03:00,90.2,63.3,30.08,ESE,113,4.0,9.0,41,0.00,,,0.00,893,Wunderground v.1.15,2013-05-31 18:03:00,
2013-05-31 14:09:00,89.9,65.7,30.08,NNW,333,5.0,9.0,45,0.00,,,0.00,889,Wunderground v.1.15,2013-05-31 18:09:00,
2013-05-31 14:14:00,90.5,64.3,30.08,ESE,123,4.0,9.0,42,0.00,,,0.00,879,Wunderground v.1.15,2013-05-31 18:14:00,
2013-05-31 14:20:00,90.2,64.7,30.08,East,100,5.0,9.0,43,0.00,,,0.00,867,Wunderground v.1.15,2013-05-31 18:20:00,
2013-05-31 14:25:00,90.5,59.1,30.08,SE,140,6.0,9.0,35,0.00,,,0.00,865,Wunderground v.1.15,2013-05-31 18:25:00,
2013-05-31 14:31:00,90.7,59.3,30.08,East,97,6.0,7.0,35,0.00,,,0.00,877,Wunderground v.1.15,2013-05-31 18:31:00,
2013-05-31 14:37:00,91.1,61.2,30.08,SE,128,5.0,9.0,37,0.00,,,0.00,858,Wunderground v.1.15,2013-05-31 18:37:00,
2013-05-31 14:43:00,91.3,60.6,30.08,SE,129,5.0,9.0,36,0.00,,,0.00,846,Wunderground v.1.15,2013-05-31 18:43:00,
2013-05-31 14:48:00,91.0,61.1,30.07,SSE,160,5.0,9.0,37,0.00,,,0.00,826,Wunderground v.1.15,2013-05-31 18:48:00,
2013-05-31 14:54:00,91.3,63.6,30.07,SE,141,4.0,9.0,40,0.00,,,0.00,831,Wunderground v.1.15,2013-05-31 18:54:00,
2013-05-31 15:00:00,90.9,61.8,30.07,South,174,5.0,5.0,38,0.00,,,0.00,856,Wunderground v.1.15,2013-05-31 19:00:00,
2013-05-31 15:06:00,91.2,61.3,30.07,SSE,150,4.0,8.0,37,0.00,,,0.00,835,Wunderground v.1.15,2013-05-31 19:06:00,
2013-05-31 15:12:00,91.1,60.4,30.07,SSE,154,6.0,8.0,36,0.00,,,0.00,833,Wunderground v.1.15,2013-05-31 19:12:00,
2013-05-31 15:17:00,90.3,60.5,30.07,SSE,151,6.0,8.0,37,0.00,,,0.00,784,Wunderground v.1.15,2013-05-31 19:17:00,
2013-05-31 15:23:00,90.3,58.1,30.07,South,176,6.0,7.0,34,0.00,,,0.00,227,Wunderground v.1.15,2013-05-31 19:23:00,
2013-05-31 15:29:00,90.0,60.2,30.07,SE,129,5.0,7.0,37,0.00,,,0.00,142,Wunderground v.1.15,2013-05-31 19:29:00,
2013-05-31 15:35:00,90.4,62.1,30.07,SE,132,3.0,9.0,39,0.00,,,0.00,788,Wunderground v.1.15,2013-05-31 19:35:00,
2013-05-31 15:40:00,90.8,62.4,30.06,South,183,5.0,5.0,39,0.00,,,0.00,738,Wunderground v.1.15,2013-05-31 19:40:00,
2013-05-31 15:46:00,91.2,62.0,30.06,SSE,153,5.0,6.0,38,0.00,,,0.00,733,Wunderground v.1.15,2013-05-31 19:46:00,
2013-05-31 15:52:00,91.5,61.6,30.06,ESE,105,5.0,12.0,37,0.00,,,0.00,701,Wunderground v.1.15,2013-05-31 19:52:00,
2013-05-31 15:57:00,90.9,60.3,30.06,SE,140,6.0,12.0,36,0.00,,,0.00,698,Wunderground v.1.15,2013-05-31 19:57:00,
2013-05-31 16:02:00,91.0,60.3,30.06,South,182,6.0,7.0,36,0.00,,,0.00,703,Wunderground v.1.15,2013-05-31 20:02:00,
2013-05-31 16:08:00,91.5,60.0,30.06,SE,134,4.0,9.0,35,0.00,,,0.00,680,Wunderground v.1.15,2013-05-31 20:08:00,
2013-05-31 16:14:00,91.1,61.2,30.06,West,265,5.0,7.0,37,0.00,,,0.00,642,Wunderground v.1.15,2013-05-31 20:14:00,
2013-05-31 16:20:00,91.0,60.3,30.06,South,171,5.0,8.0,36,0.00,,,0.00,645,Wunderground v.1.15,2013-05-31 20:20:00,
2013-05-31 16:26:00,90.8,60.2,30.05,ESE,123,6.0,13.0,36,0.00,,,0.00,628,Wunderground v.1.15,2013-05-31 20:26:00,
2013-05-31 16:31:00,90.6,61.5,30.05,ESE,120,6.0,7.0,38,0.00,,,0.00,599,Wunderground v.1.15,2013-05-31 20:31:00,
2013-05-31 16:37:00,90.6,60.8,30.05,ESE,119,6.0,12.0,37,0.00,,,0.00,566,Wunderground v.1.15,2013-05-31 20:37:00,
2013-05-31 16:43:00,90.3,62.7,30.04,SE,130,7.0,7.0,40,0.00,,,0.00,573,Wunderground v.1.15,2013-05-31 20:43:00,
2013-05-31 16:49:00,90.6,62.3,30.04,SW,215,5.0,7.0,39,0.00,,,0.00,555,Wunderground v.1.15,2013-05-31 20:49:00,
2013-05-31 16:55:00,90.8,60.9,30.04,SE,131,4.0,7.0,37,0.00,,,0.00,550,Wunderground v.1.15,2013-05-31 20:55:00,
2013-05-31 17:00:00,90.8,61.7,30.04,WSW,258,4.0,5.0,38,0.00,,,0.00,541,Wunderground v.1.15,2013-05-31 21:00:00,
2013-05-31 17:06:00,91.2,58.9,30.04,NNE,22,4.0,7.0,34,0.00,,,0.00,513,Wunderground v.1.15,2013-05-31 21:06:00,
2013-05-31 17:12:00,91.4,59.9,30.03,ESE,121,4.0,7.0,35,0.00,,,0.00,494,Wunderground v.1.15,2013-05-31 21:12:00,
2013-05-31 17:18:00,90.9,59.5,30.03,ESE,107,5.0,7.0,35,0.00,,,0.00,475,Wunderground v.1.15,2013-05-31 21:18:00,
2013-05-31 17:24:00,90.4,59.8,30.03,SE,144,7.0,7.0,36,0.00,,,0.00,461,Wunderground v.1.15,2013-05-31 21:24:00,
2013-05-31 17:30:00,90.3,60.5,30.03,ESE,111,5.0,5.0,37,0.00,,,0.00,441,Wunderground v.1.15,2013-05-31 21:30:00,
2013-05-31 17:35:00,90.4,62.1,30.03,SSE,168,4.0,9.0,39,0.00,,,0.00,427,Wunderground v.1.15,2013-05-31 21:35:00,
2013-05-31 17:41:00,90.1,61.1,30.03,SSE,156,5.0,6.0,38,0.00,,,0.00,413,Wunderground v.1.15,2013-05-31 21:41:00,
2013-05-31 17:46:00,90.1,61.8,30.02,ESE,113,5.0,8.0,39,0.00,,,0.00,392,Wunderground v.1.15,2013-05-31 21:46:00,
2013-05-31 17:52:00,89.9,61.6,30.02,SE,127,6.0,9.0,39,0.00,,,0.00,380,Wunderground v.1.15,2013-05-31 21:52:00,
2013-05-31 17:58:00,89.6,62.1,30.02,NNE,32,7.0,9.0,40,0.00,,,0.00,350,Wunderground v.1.15,2013-05-31 21:58:00,
2013-05-31 18:04:00,89.5,62.0,30.02,SSE,150,5.0,7.0,40,0.00,,,0.00,336,Wunderground v.1.15,2013-05-31 22:04:00,
2013-05-31 18:09:00,89.4,62.6,30.02,SE,146,5.0,8.0,41,0.00,,,0.00,320,Wunderground v.1.15,2013-05-31 22:09:00,
2013-05-31 18:14:00,89.5,64.0,30.02,South,173,4.0,6.0,43,0.00,,,0.00,306,Wunderground v.1.15,2013-05-31 22:14:00,
2013-05-31 18:20:00,89.5,62.7,30.02,SSE,150,3.0,3.0,41,0.00,,,0.00,288,Wunderground v.1.15,2013-05-31 22:20:00,
2013-05-31 18:26:00,89.4,61.9,30.02,SE,128,5.0,8.0,40,0.00,,,0.00,267,Wunderground v.1.15,2013-05-31 22:26:00,
2013-05-31 18:32:00,89.1,61.6,30.02,ESE,119,6.0,7.0,40,0.00,,,0.00,250,Wunderground v.1.15,2013-05-31 22:32:00,
2013-05-31 18:38:00,89.3,61.8,30.02,ESE,121,5.0,10.0,40,0.00,,,0.00,234,Wunderground v.1.15,2013-05-31 22:38:00,
2013-05-31 18:43:00,89.4,61.2,30.02,ESE,107,4.0,6.0,39,0.00,,,0.00,220,Wunderground v.1.15,2013-05-31 22:43:00,
2013-05-31 18:49:00,89.3,61.1,30.02,ESE,120,4.0,10.0,39,0.00,,,0.00,204,Wunderground v.1.15,2013-05-31 22:49:00,
2013-05-31 18:55:00,89.2,61.0,30.02,ESE,118,4.0,6.0,39,0.00,,,0.00,186,Wunderground v.1.15,2013-05-31 22:55:00,
2013-05-31 19:00:00,88.8,60.7,30.02,SE,128,6.0,10.0,39,0.00,,,0.00,172,Wunderground v.1.15,2013-05-31 23:00:00,
2013-05-31 19:06:00,88.6,59.0,30.02,SSE,150,7.0,10.0,37,0.00,,,0.00,155,Wunderground v.1.15,2013-05-31 23:06:00,
2013-05-31 19:12:00,88.4,57.3,30.02,ESE,123,7.0,12.0,35,0.00,,,0.00,132,Wunderground v.1.15,2013-05-31 23:12:00,
2013-05-31 19:18:00,88.3,57.2,30.02,ESE,115,7.0,12.0,35,0.00,,,0.00,111,Wunderground v.1.15,2013-05-31 23:18:00,
2013-05-31 19:24:00,88.1,57.0,30.03,ESE,120,5.0,10.0,35,0.00,,,0.00,93,Wunderground v.1.15,2013-05-31 23:24:00,
2013-05-31 19:30:00,87.8,56.7,30.03,SE,135,6.0,10.0,35,0.00,,,0.00,37,Wunderground v.1.15,2013-05-31 23:30:00,
2013-05-31 19:36:00,87.4,57.2,30.03,ESE,111,5.0,10.0,36,0.00,,,0.00,28,Wunderground v.1.15,2013-05-31 23:36:00,
2013-05-31 19:41:00,87.1,56.9,30.03,SSE,154,5.0,10.0,36,0.00,,,0.00,26,Wunderground v.1.15,2013-05-31 23:41:00,
2013-05-31 19:47:00,86.9,56.7,30.03,ESE,115,4.0,10.0,36,0.00,,,0.00,21,Wunderground v.1.15,2013-05-31 23:47:00,
2013-05-31 19:52:00,86.7,56.6,30.03,SE,131,4.0,10.0,36,0.00,,,0.00,18,Wunderground v.1.15,2013-05-31 23:52:00,
2013-05-31 19:58:00,86.5,57.1,30.03,SE,146,3.0,10.0,37,0.00,,,0.00,18,Wunderground v.1.15,2013-05-31 23:58:00,
2013-05-31 20:04:00,86.2,57.6,30.03,SSE,151,3.0,5.0,38,0.00,,,0.00,12,Wunderground v.1.15,2013-06-01 00:04:00,
2013-05-31 20:09:00,85.9,58.1,30.03,SE,130,2.0,5.0,39,0.00,,,0.00,9,Wunderground v.1.15,2013-06-01 00:09:00,
2013-05-31 20:15:00,85.5,58.4,30.03,SE,146,1.0,5.0,40,0.00,,,0.00,5,Wunderground v.1.15,2013-06-01 00:15:00,
2013-05-31 20:21:00,85.0,58.7,30.03,SE,128,2.0,5.0,41,0.00,,,0.00,0,Wunderground v.1.15,2013-06-01 00:21:00,
2013-05-31 20:27:00,84.5,58.9,30.03,SE,128,2.0,5.0,42,0.00,,,0.00,0,Wunderground v.1.15,2013-06-01 00:27:00,
2013-05-31 20:32:00,84.0,59.1,30.03,SE,145,2.0,5.0,43,0.00,,,0.00,0,Wunderground v.1.15,2013-06-01 00:32:00,
2013-05-31 20:38:00,83.5,59.3,30.03,SE,128,3.0,5.0,44,0.00,,,0.00,0,Wunderground v.1.15,2013-06-01 00:38:00,
2013-05-31 20:44:00,83.2,59.0,30.03,SE,129,3.0,5.0,44,0.00,,,0.00,0,Wunderground v.1.15,2013-06-01 00:44:00,
2013-05-31 20:50:00,82.8,59.3,30.04,WNW,294,2.0,5.0,45,0.00,,,0.00,0,Wunderground v.1.15,2013-06-01 00:50:00,
2013-05-31 20:56:00,82.3,60.1,30.04,WNW,285,1.0,5.0,47,0.00,,,0.00,0,Wunderground v.1.15,2013-06-01 00:56:00,
2013-05-31 21:02:00,81.8,60.2,30.04,WNW,285,1.0,1.0,48,0.00,,,0.00,0,Wunderground v.1.15,2013-06-01 01:02:00,
2013-05-31 21:07:00,81.3,60.3,30.04,WNW,285,1.0,2.0,49,0.00,,,0.00,0,Wunderground v.1.15,2013-06-01 01:07:00,
2013-05-31 21:13:00,80.7,60.3,30.04,WNW,285,1.0,1.0,50,0.00,,,0.00,0,Wunderground v.1.15,2013-06-01 01:13:00,
2013-05-31 21:19:00,80.2,60.4,30.04,WNW,288,1.0,2.0,51,0.00,,,0.00,0,Wunderground v.1.15,2013-06-01 01:19:00,
2013-05-31 21:25:00,79.6,60.4,30.05,WNW,288,1.0,2.0,52,0.00,,,0.00,0,Wunderground v.1.15,2013-06-01 01:25:00,
2013-05-31 21:30:00,79.4,60.2,30.05,WNW,288,1.0,1.0,52,0.00,,,0.00,0,Wunderground v.1.15,2013-06-01 01:30:00,
2013-05-31 21:36:00,79.4,60.2,30.05,South,178,1.0,2.0,52,0.00,,,0.00,0,Wunderground v.1.15,2013-06-01 01:36:00,
2013-05-31 21:42:00,79.7,60.0,30.05,SE,128,1.0,3.0,51,0.00,,,0.00,0,Wunderground v.1.15,2013-06-01 01:42:00,
2013-05-31 21:48:00,80.0,60.2,30.05,WSW,238,2.0,3.0,51,0.00,,,0.00,0,Wunderground v.1.15,2013-06-01 01:48:00,
2013-05-31 21:54:00,79.7,60.5,30.05,WSW,238,0.0,1.0,52,0.00,,,0.00,0,Wunderground v.1.15,2013-06-01 01:54:00,
2013-05-31 22:00:00,79.3,60.1,30.05,SSW,205,0.0,0.0,52,0.00,,,0.00,0,Wunderground v.1.15,2013-06-01 02:00:00,
2013-05-31 22:06:00,78.8,60.7,30.05,SSW,205,0.0,1.0,54,0.00,,,0.00,0,Wunderground v.1.15,2013-06-01 02:06:00,
2013-05-31 22:12:00,78.1,60.6,30.05,West,267,1.0,1.0,55,0.00,,,0.00,0,Wunderground v.1.15,2013-06-01 02:12:00,
2013-05-31 22:18:00,77.7,60.2,30.05,WNW,301,1.0,1.0,55,0.00,,,0.00,0,Wunderground v.1.15,2013-06-01 02:18:00,
2013-05-31 22:24:00,77.4,60.0,30.05,WNW,290,1.0,2.0,55,0.00,,,0.00,0,Wunderground v.1.15,2013-06-01 02:24:00,
2013-05-31 22:30:00,77.5,59.5,30.05,WSW,252,1.0,1.0,54,0.00,,,0.00,0,Wunderground v.1.15,2013-06-01 02:30:00,
2013-05-31 22:35:00,77.6,59.6,30.05,WNW,294,1.0,1.0,54,0.00,,,0.00,0,Wunderground v.1.15,2013-06-01 02:35:00,
2013-05-31 22:41:00,77.6,60.2,30.05,West,278,1.0,1.0,55,0.00,,,0.00,0,Wunderground v.1.15,2013-06-01 02:41:00,
2013-05-31 22:46:00,77.4,60.5,30.05,WNW,289,1.0,2.0,56,0.00,,,0.00,0,Wunderground v.1.15,2013-06-01 02:46:00,
2013-05-31 22:52:00,76.9,60.0,30.05,WNW,293,1.0,2.0,56,0.00,,,0.00,0,Wunderground v.1.15,2013-06-01 02:52:00,
2013-05-31 22:58:00,76.5,60.1,30.05,WNW,293,1.0,2.0,57,0.00,,,0.00,0,Wunderground v.1.15,2013-06-01 02:58:00,
2013-05-31 23:04:00,76.2,59.9,30.05,WNW,293,1.0,2.0,57,0.00,,,0.00,0,Wunderground v.1.15,2013-06-01 03:04:00,
2013-05-31 23:10:00,76.2,59.9,30.05,WNW,293,1.0,2.0,57,0.00,,,0.00,0,Wunderground v.1.15,2013-06-01 03:10:00,
2013-05-31 23:15:00,76.2,59.9,30.05,WNW,291,1.0,2.0,57,0.00,,,0.00,0,Wunderground v.1.15,2013-06-01 03:15:00,
2013-05-31 23:21:00,76.2,59.9,30.05,WNW,293,1.0,2.0,57,0.00,,,0.00,0,Wunderground v.1.15,2013-06-01 03:21:00,
2013-05-31 23:27:00,76.0,60.2,30.05,WNW,293,1.0,2.0,58,0.00,,,0.00,0,Wunderground v.1.15,2013-06-01 03:27:00,
2013-05-31 23:32:00,75.9,60.1,30.05,WNW,294,1.0,2.0,58,0.00,,,0.00,0,Wunderground v.1.15,2013-06-01 03:32:00,
2013-05-31 23:38:00,75.7,59.9,30.04,WNW,294,1.0,2.0,58,0.00,,,0.00,0,Wunderground v.1.15,2013-06-01 03:38:00,
2013-05-31 23:44:00,75.5,60.2,30.04,WNW,294,0.0,2.0,59,0.00,,,0.00,0,Wunderground v.1.15,2013-06-01 03:44:00,
2013-05-31 23:50:00,75.2,59.9,30.04,WNW,294,0.0,2.0,59,0.00,,,0.00,0,Wunderground v.1.15,2013-06-01 03:50:00,
2013-05-31 23:55:00,75.2,59.9,30.04,WNW,294,1.0,2.0,59,0.00,,,0.00,0,Wunderground v.1.15,2013-06-01 03:55:00,